{"data":{"norad_id":48573,"epoch":"2026-09-19T20:22:45.165504Z","epoch_age_seconds":93420,"freshness":"FRESH","line1":"1 48573U 21041W   26262.84913386  .00000383  00000+0  24097-4 0  9994","line2":"2 48573  53.1605 303.7878 0001222  88.7066 271.4076 15.31694843295015","mean_motion":15.31694843,"eccentricity":0.0001222,"inclination_deg":53.1605,"raan_deg":303.7878,"arg_perigee_deg":88.7066,"mean_anomaly_deg":271.4076,"bstar":2.4097e-5,"rev_number":29501,"period_min":94.013504490202,"perigee_km":469.91843337006,"apogee_km":471.5923026648,"semimajor_km":6848.8923680174,"source":"CELESTRAK","updated_at":"2026-09-20T09:00:39.135145Z"}}